GW4109 Weather Reports


time (UTC)temp
F
wind
direction
speed
knots
gust
knots
rain 1hr
in
rain 24hr
in
rain mn
in
humidity
%
barometer
mb
20260901230006 100 227 7.8 11.3 0.00 0.00 0.00 17 1014.3
20260901225500 100 288 2.6 10.4 0.00 0.00 0.00 17 1014.4
20260901224954 100 278 7.0 13.0 0.00 0.00 0.00 17 1014.4
20260901224450 102 251 3.5 7.8 0.00 0.00 0.00 16 1014.4
20260901223946 101 224 3.5 7.0 0.00 0.00 0.00 17 1014.5
20260901223442 101 257 7.0 10.4 0.00 0.00 0.00 17 1014.5
20260901222937 101 250 9.6 13.9 0.00 0.00 0.00 16 1014.5
20260901222433 102 249 7.8 9.6 0.00 0.00 0.00 16 1014.5
20260901221929 103 264 4.3 12.2 0.00 0.00 0.00 16 1014.5
20260901221425 102 233 7.8 12.2 0.00 0.00 0.00 16 1014.5
20260901220920 102 256 9.6 13.0 0.00 0.00 0.00 16 1014.5
20260901220419 102 244 5.2 9.6 0.00 0.00 0.00 16 1014.5
20260901215918 100 234 3.5 16.5 0.00 0.00 0.00 16 1014.7
20260901215416 101 252 5.2 14.8 0.00 0.00 0.00 17 1014.7
20260901214916 102 231 5.2 18.2 0.00 0.00 0.00 16 1014.7
20260901214414 103 243 13.0 14.8 0.00 0.00 0.00 15 1014.9
20260901213914 102 232 16.5 23.5 0.00 0.00 0.00 15 1014.7
20260901213409 103 221 7.8 13.9 0.00 0.00 0.00 15 1014.9
20260901212903 102 219 5.2 16.5 0.00 0.00 0.00 16 1015.0
20260901212358 102 230 11.3 14.8 0.00 0.00 0.00 16 1015.1
20260901211855 102 252 7.8 15.6 0.00 0.00 0.00 17 1015.2
20260901211350 103 240 7.8 13.0 0.00 0.00 0.00 16 1015.1
20260901210846 102 233 9.6 18.2 0.00 0.00 0.00 16 1015.1
20260901210341 102 231 10.4 18.2 0.00 0.00 0.00 15 1015.2
20260901205838 101 174 2.6 13.0 0.00 0.00 0.00 17 1015.2
20260901205337 101 219 3.5 13.9 0.00 0.00 0.00 17 1015.2
20260901204832 102 229 6.1 11.3 0.00 0.00 0.00 16 1015.4
20260901204329 102 232 8.7 18.2 0.00 0.00 0.00 16 1015.3
20260901203828 103 209 7.0 10.4 0.00 0.00 0.00 16 1015.3
20260901203322 102 217 6.1 11.3 0.00 0.00 0.00 15 1015.4
20260901202817 101 217 11.3 17.4 0.00 0.00 0.00 15 1015.5
20260901202312 101 230 8.7 15.6 0.00 0.00 0.00 16 1015.4
20260901201809 102 250 11.3 16.5 0.00 0.00 0.00 15 1015.5
20260901201308 102 229 7.8 15.6 0.00 0.00 0.00 16 1015.7
20260901200802 102 202 4.3 11.3 0.00 0.00 0.00 16 1015.6
20260901200258 101 246 3.5 4.3 0.00 0.00 0.00 17 1015.7
20260901195755 102 348 6.1 7.0 0.00 0.00 0.00 17 1015.5
20260901195249 101 103 1.7 2.6 0.00 0.00 0.00 17 1015.9
20260901194745 102 259 1.7 3.5 0.00 0.00 0.00 17 1015.6
20260901194240 102 344 0.9 3.5 0.00 0.00 0.00 18 1015.7
20260901193736 100 336 4.3 5.2 0.00 0.00 0.00 18 1016.0
20260901193235 98 236 0.9 8.7 0.00 0.00 0.00 18 1016.0
20260901192730 100 238 1.7 5.2 0.00 0.00 0.00 18 1016.1
20260901192225 99 75 3.5 4.3 0.00 0.00 0.00 18 1016.0
20260901191721 100 56 1.7 6.1 0.00 0.00 0.00 18 1016.1
20260901191219 100 83 1.7 3.5 0.00 0.00 0.00 18 1016.3
20260901190713 100 76 3.5 4.3 0.00 0.00 0.00 18 1016.1
20260901190212 98 358 3.5 5.2 0.00 0.00 0.00 19 1016.3
20260901185711 100 357 4.3 7.0 0.00 0.00 0.00 19 1016.5
20260901185209 100 83 0.0 2.6 0.00 0.00 0.00 18 1016.6
20260901184705 98 269 0.0 4.3 0.00 0.00 0.00 19 1016.7
20260901184159 98 286 0.0 2.6 0.00 0.00 0.00 19 1016.8
20260901183650 97 96 2.6 5.2 0.00 0.00 0.00 19 1016.7
20260901183149 98 101 2.6 5.2 0.00 0.00 0.00 19 1016.8
20260901182646 98 98 4.3 7.0 0.00 0.00 0.00 18 1016.7
20260901182144 97 85 4.3 4.3 0.00 0.00 0.00 19 1016.7
20260901181639 96 113 1.7 7.0 0.00 0.00 0.00 19 1016.9
20260901181134 98 77 2.6 4.3 0.00 0.00 0.00 18 1017.0
20260901180634 97 2 1.7 6.1 0.00 0.00 0.00 18 1017.0
20260901180128 98 78 2.6 5.2 0.00 0.00 0.00 18 1017.0
20260901175627 98 96 1.7 3.5 0.00 0.00 0.00 18 1017.1
20260901175121 96 101 1.7 6.1 0.00 0.00 0.00 18 1017.1
20260901174617 97 75 2.6 5.2 0.00 0.00 0.00 17 1017.1
20260901174113 97 51 1.7 5.2 0.00 0.00 0.00 17 1017.1
20260901173607 96 0 0.0 2.6 0.00 0.00 0.00 17 1017.3
20260901173103 96 321 0.0 3.5 0.00 0.00 0.00 17 1017.1
20260901172559 97 86 2.6 3.5 0.00 0.00 0.00 17 1017.3
20260901172057 96 326 1.7 3.5 0.00 0.00 0.00 17 1017.1
20260901171556 96 78 1.7 1.7 0.00 0.00 0.00 16 1017.1
20260901171055 96 358 2.6 2.6 0.00 0.00 0.00 18 1017.3
20260901170549 96 103 1.7 2.6 0.00 0.00 0.00 16 1017.1
20260901170044 95 84 1.7 3.5 0.00 0.00 0.00 16 1016.9
20260901165543 93 76 0.0 3.5 0.00 0.00 0.00 17 1017.3
20260901165039 93 105 1.7 3.5 0.00 0.00 0.00 16 1017.3
20260901164535 94 77 1.7 3.5 0.00 0.00 0.00 15 1017.0
20260901164029 93 315 0.0 2.6 0.00 0.00 0.00 16 1017.1
20260901163525 94 259 0.9 1.7 0.00 0.00 0.00 15 1017.1
20260901163024 94 344 0.0 1.7 0.00 0.00 0.00 15 1017.0
20260901162519 93 89 0.9 1.7 0.00 0.00 0.00 15 1017.0
20260901162019 93 74 0.9 1.7 0.00 0.00 0.00 15 1017.0
20260901161518 93 60 0.0 2.6 0.00 0.00 0.00 15 1016.9
20260901161018 92 258 1.7 2.6 0.00 0.00 0.00 15 1017.0
20260901160514 92 103 1.7 2.6 0.00 0.00 0.00 15 1016.9
20260901160015 92 326 0.0 1.7 0.00 0.00 0.00 15 1016.7
20260901155513 93 43 1.7 1.7 0.00 0.00 0.00 15 1016.9
20260901155010 93 53 0.9 1.7 0.00 0.00 0.00 14 1016.9
20260901154510 91 269 0.0 1.7 0.00 0.00 0.00 15 1017.0
20260901154009 91 64 1.7 3.5 0.00 0.00 0.00 15 1016.9
20260901153505 89 74 0.9 3.5 0.00 0.00 0.00 15 1016.9
20260901153004 89 99 0.0 2.6 0.00 0.00 0.00 16 1016.7
20260901152459 89 269 0.0 1.7 0.00 0.00 0.00 16 1016.8
20260901151958 88 284 0.0 1.7 0.00 0.00 0.00 16 1016.8
20260901151454 88 85 0.0 1.7 0.00 0.00 0.00 16 1016.9
20260901150953 89 350 0.9 1.7 0.00 0.00 0.00 16 1016.9
20260901150451 87 113 0.0 1.7 0.00 0.00 0.00 17 1016.9
20260901145948 87 281 1.7 1.7 0.00 0.00 0.00 16 1016.9
20260901145443 86 282 0.0 1.7 0.00 0.00 0.00 18 1016.8
20260901144937 87 267 0.0 0.9 0.00 0.00 0.00 17 1016.7
20260901144432 87 65 0.9 1.7 0.00 0.00 0.00 16 1016.6
20260901143928 86 89 0.0 2.6 0.00 0.00 0.00 18 1016.8
20260901143424 84 207 1.7 2.6 0.00 0.00 0.00 19 1016.7
20260901142920 83 106 0.0 1.7 0.00 0.00 0.00 20 1016.8
20260901142420 82 250 0.9 1.7 0.00 0.00 0.00 20 1016.7
20260901141915 81 121 1.7 1.7 0.00 0.00 0.00 20 1016.6
20260901141410 79 178 0.9 1.7 0.00 0.00 0.00 22 1016.6
20260901140909 78 283 0.0 0.9 0.00 0.00 0.00 22 1016.6
20260901140402 77 143 0.0 0.9 0.00 0.00 0.00 22 1016.8
20260901135857 76 139 0.0 1.7 0.00 0.00 0.00 23 1016.6
20260901135352 75 239 0.0 1.7 0.00 0.00 0.00 23 1016.3
20260901134848 76 147 0.9 1.7 0.00 0.00 0.00 23 1016.5
20260901134343 76 193 1.7 1.7 0.00 0.00 0.00 23 1016.1
20260901133842 74 226 0.0 3.5 0.00 0.00 0.00 23 1016.2
20260901133341 76 39 0.0 2.6 0.00 0.00 0.00 23 1016.1
20260901132841 74 256 2.6 3.5 0.00 0.00 0.00 24 1016.0
20260901132336 77 85 0.9 2.6 0.00 0.00 0.00 23 1016.0
20260901131836 76 259 0.0 3.5 0.00 0.00 0.00 23 1016.0
20260901131335 77 44 0.9 1.7 0.00 0.00 0.00 23 1016.0
20260901130830 76 44 0.9 1.7 0.00 0.00 0.00 23 1016.0
20260901130325 73 341 0.9 2.6 0.00 0.00 0.00 25 1016.0
20260901125822 75 130 0.0 2.6 0.00 0.00 0.00 24 1016.0
20260901125317 74 244 0.0 1.7 0.00 0.00 0.00 24 1016.0
20260901124812 73 317 1.7 1.7 0.00 0.00 0.00 25 1015.8
20260901124307 73 180 0.0 0.9 0.00 0.00 0.00 25 1015.8
20260901123806 73 256 1.7 2.6 0.00 0.00 0.00 25 1015.7
20260901123302 73 219 0.0 1.7 0.00 0.00 0.00 26 1015.7
20260901122800 74 40 0.0 0.9 0.00 0.00 0.00 25 1015.9
20260901122255 74 235 0.0 0.9 0.00 0.00 0.00 26 1015.8
20260901121754 73 338 0.9 1.7 0.00 0.00 0.00 25 1015.8
20260901121249 75 166 0.9 1.7 0.00 0.00 0.00 25 1015.4
20260901120749 74 86 0.9 1.7 0.00 0.00 0.00 25 1015.5
20260901120244 75 185 0.9 1.7 0.00 0.00 0.00 25 1015.5
20260901115739 75 297 0.9 1.7 0.00 0.00 0.00 24 1015.6
20260901115235 75 168 0.0 1.7 0.00 0.00 0.00 25 1015.5
20260901114726 75 280 2.6 5.2 0.00 0.00 0.00 24 1015.6
20260901114221 76 239 0.0 3.5 0.00 0.00 0.00 24 1015.5
20260901113719 75 225 3.5 4.3 0.00 0.00 0.00 24 1015.5
20260901113215 76 297 0.0 1.7 0.00 0.00 0.00 24 1015.5
20260901112714 77 322 0.0 0.9 0.00 0.00 0.00 23 1015.4
20260901112209 78 269 0.0 1.7 0.00 0.00 0.00 22 1015.5
20260901111708 82 296 1.7 3.5 0.00 0.00 0.00 20 1015.3
20260901111202 80 278 3.5 4.3 0.00 0.00 0.00 20 1015.3
20260901110656 78 214 0.0 0.9 0.00 0.00 0.00 23 1015.4
20260901110152 81 231 0.9 2.6 0.00 0.00 0.00 21 1015.3
20260901105649 84 76 0.0 3.5 0.00 0.00 0.00 19 1015.4
20260901105148 80 163 4.3 5.2 0.00 0.00 0.00 21 1015.5
20260901104644 78 129 0.9 1.7 0.00 0.00 0.00 23 1015.6
20260901104139 78 176 1.7 2.6 0.00 0.00 0.00 24 1015.5
20260901103638 77 109 0.0 1.7 0.00 0.00 0.00 24 1015.4
20260901103134 77 202 0.0 0.9 0.00 0.00 0.00 24 1015.3
20260901102633 78 262 0.9 1.7 0.00 0.00 0.00 24 1015.6
20260901102128 78 306 0.0 1.7 0.00 0.00 0.00 24 1015.6
20260901101625 79 258 0.0 0.9 0.00 0.00 0.00 24 1015.7
20260901101124 80 37 0.0 0.9 0.00 0.00 0.00 23 1015.6
20260901100623 80 25 0.0 1.7 0.00 0.00 0.00 23 1015.8
20260901100118 81 109 0.9 2.6 0.00 0.00 0.00 22 1015.7
20260901095616 82 84 0.0 2.6 0.00 0.00 0.00 22 1015.6
20260901095114 81 75 2.6 2.6 0.00 0.00 0.00 22 1015.6
20260901094609 81 65 1.7 3.5 0.00 0.00 0.00 23 1015.5
20260901094103 82 48 0.9 2.6 0.00 0.00 0.00 22 1015.7
20260901093557 80 107 0.0 1.7 0.00 0.00 0.00 23 1015.6
20260901093052 79 223 0.0 1.7 0.00 0.00 0.00 25 1015.4
20260901092548 80 332 1.7 1.7 0.00 0.00 0.00 25 1015.5
20260901092044 81 49 0.0 1.7 0.00 0.00 0.00 23 1015.4
20260901091539 81 140 0.0 0.9 0.00 0.00 0.00 23 1015.4
20260901091034 82 11 0.0 1.7 0.00 0.00 0.00 23 1015.5
20260901090533 82 79 0.0 3.5 0.00 0.00 0.00 22 1015.6
20260901090029 80 129 2.6 2.6 0.00 0.00 0.00 25 1015.4
20260901085524 80 44 0.9 1.7 0.00 0.00 0.00 26 1015.5
20260901085020 81 82 1.7 3.5 0.00 0.00 0.00 26 1015.4
20260901084516 80 9 0.9 3.5 0.00 0.00 0.00 25 1015.7
20260901084012 79 269 0.0 1.7 0.00 0.00 0.00 27 1015.4
20260901083507 79 326 0.0 1.7 0.00 0.00 0.00 28 1015.3
20260901083005 79 123 0.0 1.7 0.00 0.00 0.00 27 1015.4
20260901082500 80 157 0.0 1.7 0.00 0.00 0.00 27 1015.4
20260901081955 81 68 0.0 2.6 0.00 0.00 0.00 27 1015.6
20260901081449 81 308 0.0 1.7 0.00 0.00 0.00 27 1015.3
20260901080939 80 33 0.9 1.7 0.00 0.00 0.00 28 1015.2
20260901080438 80 269 0.0 1.7 0.00 0.00 0.00 27 1015.4
20260901075938 81 236 1.7 2.6 0.00 0.00 0.00 26 1015.4
20260901075434 80 131 0.9 1.7 0.00 0.00 0.00 27 1015.2
20260901074928 80 166 1.7 1.7 0.00 0.00 0.00 27 1015.2
20260901074428 81 102 0.0 1.7 0.00 0.00 0.00 27 1015.3
20260901073923 81 100 0.0 1.7 0.00 0.00 0.00 27 1015.3
20260901073420 79 114 0.0 1.7 0.00 0.00 0.00 28 1015.2
20260901072914 79 13 0.9 1.7 0.00 0.00 0.00 28 1015.4
20260901072409 81 16 1.7 1.7 0.00 0.00 0.00 28 1015.3
20260901071904 81 101 0.0 0.9 0.00 0.00 0.00 27 1015.1
20260901071403 80 190 1.7 1.7 0.00 0.00 0.00 28 1015.2
20260901070902 80 258 0.0 0.9 0.00 0.00 0.00 30 1015.1
20260901070358 80 211 0.0 1.7 0.00 0.00 0.00 30 1015.0
20260901065856 81 69 0.0 0.9 0.00 0.00 0.00 28 1015.0
20260901065352 82 159 0.9 0.9 0.00 0.00 0.00 28 1015.1
20260901064847 82 72 0.0 1.7 0.00 0.00 0.00 27 1015.0
20260901064343 82 142 0.9 1.7 0.00 0.00 0.00 27 1015.0
20260901063841 81 242 0.0 1.7 0.00 0.00 0.00 27 1015.1
20260901063337 82 255 0.9 1.7 0.00 0.00 0.00 27 1015.2
20260901062832 82 183 0.0 1.7 0.00 0.00 0.00 27 1014.9
20260901062328 83 86 0.0 1.7 0.00 0.00 0.00 25 1015.1
20260901061824 84 33 0.9 1.7 0.00 0.00 0.00 25 1015.0
20260901061319 85 94 0.0 1.7 0.00 0.00 0.00 25 1015.0
20260901060814 86 132 1.7 2.6 0.00 0.00 0.00 25 1015.0
20260901060310 86 116 2.6 2.6 0.00 0.00 0.00 25 1014.8
20260901055804 85 166 0.0 2.6 0.00 0.00 0.00 26 1014.9
20260901055301 85 202 0.0 4.3 0.00 0.00 0.00 26 1014.9
20260901054758 85 240 0.9 3.5 0.00 0.00 0.00 25 1014.8
20260901054254 85 248 0.0 3.5 0.00 0.00 0.00 26 1014.9
20260901053749 85 165 1.7 2.6 0.00 0.00 0.00 27 1014.9
20260901053244 84 236 1.7 2.6 0.00 0.00 0.00 28 1015.0
20260901052739 85 136 0.0 1.7 0.00 0.00 0.00 27 1014.9
20260901052235 85 145 0.9 1.7 0.00 0.00 0.00 28 1015.0
20260901051733 85 218 0.0 1.7 0.00 0.00 0.00 29 1015.0
20260901051228 85 251 0.0 1.7 0.00 0.00 0.00 29 1015.0
20260901050724 84 174 1.7 3.5 0.00 0.00 0.00 29 1014.8
20260901050219 85 170 0.0 2.6 0.00 0.00 0.00 29 1014.8
20260901045714 86 340 0.9 1.7 0.00 0.00 0.00 29 1014.8
20260901045209 86 147 1.7 2.6 0.00 0.00 0.00 28 1014.6
20260901044704 86 198 0.9 2.6 0.00 0.00 0.00 30 1014.6
20260901044201 86 126 0.9 2.6 0.00 0.00 0.00 30 1014.6
20260901043656 86 113 0.0 3.5 0.00 0.00 0.00 30 1014.6
20260901043151 86 141 0.9 1.7 0.00 0.00 0.00 30 1014.6
20260901042650 86 70 0.0 1.7 0.00 0.00 0.00 30 1014.4
20260901042146 87 22 0.0 0.9 0.00 0.00 0.00 29 1014.6
20260901041642 88 167 1.7 2.6 0.00 0.00 0.00 28 1014.4
20260901041136 89 157 1.7 1.7 0.00 0.00 0.00 27 1014.4
20260901040635 90 214 1.7 4.3 0.00 0.00 0.00 25 1014.4
20260901040129 91 260 0.9 4.3 0.00 0.00 0.00 25 1014.3
20260901035628 91 93 0.9 4.3 0.00 0.00 0.00 25 1014.2
20260901035126 90 260 3.5 4.3 0.00 0.00 0.00 26 1014.0
20260901034621 91 279 3.5 10.4 0.00 0.00 0.00 25 1014.0
20260901034115 90 277 2.6 10.4 0.00 0.00 0.00 26 1013.9
20260901033614 91 262 5.2 9.6 0.00 0.00 0.00 26 1014.0
20260901033109 90 261 3.5 8.7 0.00 0.00 0.00 27 1013.7
20260901032607 91 314 5.2 7.8 0.00 0.00 0.00 26 1013.7
20260901032103 91 319 3.5 7.8 0.00 0.00 0.00 27 1013.6
20260901031558 91 339 2.6 2.6 0.00 0.00 0.00 27 1013.6
20260901031054 91 238 3.5 7.8 0.00 0.00 0.00 26 1013.6
20260901030553 91 281 4.3 7.8 0.00 0.00 0.00 26 1013.3
20260901030048 91 267 3.5 6.1 0.00 0.00 0.00 26 1013.5
20260901025542 92 253 5.2 6.1 0.00 0.00 0.00 26 1013.5
20260901025037 91 272 4.3 7.8 0.00 0.00 0.00 27 1013.2
20260901024532 91 257 9.6 14.8 0.00 0.00 0.00 27 1013.2
20260901024030 92 295 6.1 10.4 0.00 0.00 0.00 27 1012.9
20260901023524 91 263 5.2 13.0 0.00 0.00 0.00 28 1013.0
20260901023020 91 275 5.2 11.3 0.00 0.00 0.00 28 1012.7
20260901022515 92 253 7.0 14.8 0.00 0.00 0.00 28 1012.9
20260901022010 92 304 7.8 15.6 0.00 0.00 0.00 28 1012.7
20260901021505 92 297 11.3 12.2 0.00 0.00 0.00 29 1012.6
20260901021000 92 304 6.1 13.9 0.00 0.00 0.00 29 1012.5
20260901020450 92 323 14.8 17.4 0.00 0.00 0.00 28 1012.4
20260901015949 92 332 9.6 15.6 0.00 0.00 0.00 29 1012.3
20260901015446 93 329 6.1 14.8 0.00 0.00 0.00 28 1012.2
20260901014945 93 297 19.1 20.0 0.00 0.00 0.00 28 1012.1
20260901014441 93 305 14.8 18.2 0.00 0.00 0.00 28 1012.1
20260901013937 93 295 11.3 17.4 0.00 0.00 0.00 28 1012.2
20260901013432 93 262 9.6 14.8 0.00 0.00 0.00 28 1012.0
20260901012927 94 295 8.7 16.5 0.00 0.00 0.00 28 1011.7
20260901012422 94 308 8.7 15.6 0.00 0.00 0.00 28 1011.7
20260901011918 94 294 6.1 16.5 0.00 0.00 0.00 27 1011.6
20260901011414 95 276 9.6 15.6 0.00 0.00 0.00 27 1011.6
20260901010912 95 336 7.8 13.0 0.00 0.00 0.00 27 1011.6
20260901010407 96 293 9.6 16.5 0.00 0.00 0.00 26 1012.0
20260901005906 97 255 4.3 15.6 0.00 0.00 0.00 25 1011.7
20260901005401 97 257 11.3 15.6 0.00 0.00 0.00 25 1011.7
20260901004856 98 263 8.7 18.2 0.00 0.00 0.00 25 1011.7
20260901004355 98 264 7.8 22.6 0.00 0.00 0.00 25 1011.8
20260901003850 98 262 5.2 14.8 0.00 0.00 0.00 24 1012.0
20260901003345 99 274 8.7 14.8 0.00 0.00 0.00 25 1012.0
20260901002844 99 287 6.1 17.4 0.00 0.00 0.00 25 1011.8
20260901002343 100 251 7.8 13.9 0.00 0.00 0.00 23 1012.1
20260901001838 102 256 7.8 14.8 0.00 0.00 0.00 23 1012.0
20260901001333 100 230 8.7 12.2 0.00 0.00 0.00 21 1012.0
20260901000829 102 255 9.6 13.9 0.00 0.00 0.00 20 1012.1
20260901000324 102 268 5.2 11.3 0.00 0.00 0.00 20 1012.1
20260831235822 102 248 10.4 11.3 0.00 0.00 0.00 20 1012.1
20260831235319 102 260 6.1 14.8 0.00 0.00 0.00 22 1012.2
20260831234813 102 256 11.3 15.6 0.00 0.00 0.00 22 1012.2
20260831234313 102 232 8.7 18.2 0.00 0.00 0.00 22 1012.1
20260831233808 101 256 10.4 17.4 0.00 0.00 0.00 23 1012.2
20260831233303 102 243 13.0 15.6 0.00 0.00 0.00 22 1012.0
20260831232753 101 227 11.3 16.5 0.00 0.00 0.00 22 1012.2
20260831232250 102 241 13.9 20.0 0.00 0.00 0.00 22 1012.2
20260831231745 102 258 9.6 20.9 0.00 0.00 0.00 23 1012.2
20260831231241 102 240 13.9 19.1 0.00 0.00 0.00 21 1012.1
20260831230736 102 248 15.6 19.1 0.00 0.00 0.00 23 1012.2
20260831230231 102 247 13.0 17.4 0.00 0.00 0.00 22 1012.3